This demonstration page uses our WeatherBlox Daily Observations layout. Learn more.

Left ArrowRight Arrow

39.29038, -76.61219

Hourly Observations for July 16, 2021

Temp ( °F °C ) Dew Point ( °F °C ) Humidity (%) Winds ( mph kmh ) Pressure ( in mb ) Visibility ( mi km ) Precip ( " mm )
12:54 am 00:54 Mostly Cloudy 80 26.7 72 22.2 76 76 W 3 6 30.01 1016 10 16 N/A
1:54 am 01:54 Partly Cloudy 79 26.1 72 22.2 79 79 WSW 3 6 30.01 1016 10 16 N/A
2:54 am 02:54 Partly Cloudy 78 25.6 71 21.7 79 79 N N/A 30.01 1016 10 16 N/A
3:54 am 03:54 Partly Cloudy 78 25.6 69 20.6 74 74 N N/A 30.00 1016 10 16 N/A
4:54 am 04:54 Mostly Clear 77 25 69 20.6 77 77 N N/A 30.00 1016 10 16 N/A
5:54 am 05:54 Partly Cloudy 76 24.4 69 20.6 79 79 SW 3 6 30.02 1017 10 16 N/A
6:54 am 06:54 Partly Cloudy 76 24.4 69 20.6 79 79 N N/A 30.04 1017 10 16 N/A
7:54 am 07:54 Partly Cloudy 81 27.2 70 21.1 69 69 W 3 6 30.04 1017 10 16 N/A
8:54 am 08:54 Partly Cloudy 86 30 70 21.1 59 59 SW 3 6 30.04 1017 10 16 N/A
9:54 am 09:54 Partly Cloudy 90 32.2 67 19.4 47 47 VRB 7 11 30.04 1017 10 16 N/A
10:54 am 10:54 Partly Cloudy 92 33.3 67 19.4 44 44 W 9 15 30.04 1017 10 16 N/A
11:54 am 11:54 Partly Cloudy 94 34.4 67 19.4 41 41 WNW 6 9 30.05 1018 10 16 N/A
12:54 pm 12:54 Partly Cloudy 96 35.6 62 16.7 32 32 W 10 17 30.04 1017 10 16 N/A
1:54 pm 13:54 Partly Cloudy 97 36.1 64 17.8 34 34 W 9 15 30.03 1017 10 16 N/A
2:54 pm 14:54 Partly Cloudy 95 35 65 18.3 37 37 W 10 17 30.01 1016 10 16 N/A
3:54 pm 15:54 Partly Cloudy 98 36.7 65 18.3 34 34 WSW 10 17 29.98 1015 10 16 N/A
4:54 pm 16:54 Partly Cloudy 96 35.6 64 17.8 35 35 WSW 9 15 29.97 1015 10 16 N/A
5:54 pm 17:54 Mostly Cloudy 92 33.3 71 21.7 51 51 SSE 9 15 29.97 1015 10 16 N/A
6:54 pm 18:54 Partly Cloudy 91 32.8 71 21.7 52 52 S 8 13 29.96 1015 10 16 N/A
7:54 pm 19:54 Partly Cloudy 89 31.7 69 20.6 52 52 SSE 6 9 29.99 1016 10 16 N/A
8:54 pm 20:54 Mostly Cloudy 88 31.1 68 20 52 52 S 5 7 30.00 1016 10 16 N/A
9:54 pm 21:54 Clear 86 30 68 20 55 55 S 3 6 30.01 1016 10 16 N/A
10:54 pm 22:54 Mostly Clear 84 28.9 69 20.6 61 61 N N/A 30.02 1017 10 16 N/A
11:54 pm 23:54 Mostly Clear 82 27.8 70 21.1 67 67 N N/A 30.02 1017 10 16 N/A

Powered by AerisWeather